Regional Weather Roundup
Issued by NWS

Home | Current Version | Previous Version | Graphics & Text | Print | Product List | Glossary On
Versions: 1 2 3 4 5 6 7 8 9 10 11 12 13 14 15 16 17 18 19 20 21 22 23 24 25 26 27 28 29 30 31 32 33 34 35 36 37 38 39 40 41 42 43 44 45 46 47 48 49 50
000
ASUS43 KLOT 030012
RWRIL

ILLINOIS REGIONAL WEATHER ROUNDUP
NATIONAL WEATHER SERVICE CHICAGO/ROMEOVILLE IL
600 PM CST FRI DEC 02 2016

NOTE: "FAIR" INDICATES FEW OR NO CLOUDS BELOW 12,000 FEET WITH NO
SIGNIFICANT WEATHER AND/OR OBSTRUCTIONS TO VISIBILITY.

* THESE STATIONS ARE NOT UNDER NWS QUALITY CONTROL. THEY ALSO MAY NOT
  REPORT WEATHER SUCH AS PRECIPITATION OR FOG.

ILZ001-002-007-009-015-016-024-030100-
NORTHWEST ILLINOIS

CITY           SKY/WX    TMP DP  RH WIND       PRES   REMARKS
MOLINE         CLOUDY    37  26  64 NW10      30.31R WCI  30
6HR MIN TEMP:  37; 6HR MAX TEMP:  41;

SAVANNA*       CLOUDY    35  24  64 W7        30.30R WCI  29
$$

ILZ003-004-008-010-011-017-018-030100-
NORTH CENTRAL ILLINOIS

CITY           SKY/WX    TMP DP  RH WIND       PRES   REMARKS
ROCKFORD       CLOUDY    34  24  67 NW8       30.30R WCI  27
6HR MIN TEMP:  34; 6HR MAX TEMP:  38;

FREEPORT*      CLOUDY    32  24  71 NW10      30.30R WCI  24
ROCHELLE*      CLOUDY    34  26  73 NW5       30.29R WCI  30
DE KALB*       CLOUDY    34  26  72 NW8       30.27R WCI  27
$$

ILZ005-006-012>014-019>023-030100-
NORTHEAST ILLINOIS

CITY           SKY/WX    TMP DP  RH WIND       PRES   REMARKS
CHICAGO-OHARE  CLOUDY    37  25  61 N13       30.24S WCI  29
6HR MIN TEMP:  37; 6HR MAX TEMP:  40;

CHICAGO-MIDWAY CLOUDY    38  25  59 W9        30.26R WCI  31
6HR MIN TEMP:  38; 6HR MAX TEMP:  41;

AURORA         CLOUDY    36  28  73 NW7       30.27R WCI  30
6HR MIN TEMP:  36; 6HR MAX TEMP:  40; 6HR PCP: TRACE;

LANSING*       CLOUDY    38  30  73 NW3       30.26R
JOLIET*        CLOUDY    38  32  77 NW5       30.28R WCI  35
WAUKEGAN       CLOUDY    34  24  67 VRB6      30.25R WCI  29
6HR MIN TEMP:  34; 6HR MAX TEMP:  37;

DUPAGE AIRPORT CLOUDY    36  26  67 W10       30.25R WCI  28
6HR MIN TEMP:  36; 6HR MAX TEMP:  39;

KANKAKEE*      CLOUDY    38  32  79 W5        30.28R WCI  34
WHEELING       CLOUDY    36  25  64 N7        30.26S WCI  30
6HR MIN TEMP:  36; 6HR MAX TEMP:  39;

MORRIS*        CLOUDY    37  32  82 CALM      30.27R
ROMEOVILLE*    CLOUDY    37  32  84 NW9       30.27R WCI  30
NORTHERLY ISL    N/A     38  26  62 NW9         N/A  WCI  31
$$

LMZ740>746-030100-
SOUTHERN LAKE MICHIGAN

STATION/POSITION SKY/WX   TEMP    WIND        PRES    VSBY  WAVE
                          AIR SEA DIR/SP/G                  HT/PER
                          (F)     (DEG/KT/KT) (MB)    (MI)  (FT/S)
SOUTHERN BUOY              38 49  300/ 12/ 14 1024.2R         3/ 5
HARRISON CRIB              39     320/ 10/ 12   N/A
BURNHAM HARBOR             38     300/  9/ 12   N/A
BURNS HARBOR               40     320/ 10/ 14 1024.4R
MICHIGAN CITY              38     320/ 19/ 22   N/A
$$

ILZ025>027-034>036-040-047-049-050-058-095>099-030100-
WEST-CENTRAL ILLINOIS

CITY           SKY/WX    TMP DP  RH WIND       PRES   REMARKS
QUINCY         MOCLDY    41  31  67 CALM      30.29S
GALESBURG*     CLOUDY    37  30  76 NW3       30.31R
MACOMB*        CLOUDY    39  33  78 N6        30.33R WCI  35
JACKSONVILLE*  CLOUDY    40  32  72 CALM      30.31R
PITTSFIELD*    MOCLDY    38  31  76 CALM      30.31S
$$

ILZ028>032-037-038-041>044-048-051>054-059>061-030100-
CENTRAL ILLINOIS

CITY           SKY/WX    TMP DP  RH WIND       PRES   REMARKS
PONTIAC        CLOUDY    39  36  87 NW5       30.29R
BLOOMINGTON    CLOUDY    39  31  72 NW6       30.30R WCI  35
DECATUR        CLOUDY    41  32  70 W5        30.31R
PEORIA         CLOUDY    40  31  70 NW7       30.31R
6HR MIN TEMP:  40; 6HR MAX TEMP:  42;

LACON*         CLOUDY    38  30  73 NW8       30.29R WCI  32
LINCOLN*       CLOUDY    41  34  75 CALM      30.30S
SPRINGFIELD    CLOUDY    42  35  76 SW3       30.31R
6HR MIN TEMP:  41; 6HR MAX TEMP:  45;

TAYLORVILLE    CLOUDY    38  33  79 W3        30.32R
6HR MIN TEMP:  38; 6HR MAX TEMP:  41;

$$

ILZ033-039-045-046-055>057-062-063-030100-
EAST-CENTRAL ILLINOIS

CITY           SKY/WX    TMP DP  RH WIND       PRES   REMARKS
CHAMPAIGN      CLOUDY    39  34  82 W5        30.30R
RANTOUL*       CLOUDY    40  36  86 W5        30.29R
MATTOON        CLOUDY    39  31  72 SW5       30.30R
PARIS*         CLOUDY    38  35  87 W7        30.31R WCI  33
$$

ILZ079-100>102-030100-
SOUTHWEST ILLINOIS

CITY           SKY/WX    TMP DP  RH WIND       PRES   REMARKS
ALTON          PTCLDY    37  30  75 CALM      30.32R
BELLEVILLE     PTCLDY    37  30  74 NE3       30.30R
CAHOKIA*       PTCLDY    41  29  62 E5        30.31R
SPARTA*        CLEAR     39  31  71 NE5       30.32R
$$

ILZ064>066-069>071-074>076-080>082-084>086-088>090-092>094-030100-
SOUTH-CENTRAL ILLINOIS

CITY           SKY/WX    TMP DP  RH WIND       PRES   REMARKS
CARBONDALE     CLEAR     40  31  70 N5        30.31S
6HR MIN TEMP:  39; 6HR MAX TEMP:  50;

CAIRO*         CLOUDY    44  30  58 CALM      30.30R
EFFINGHAM*     CLOUDY    40  33  77 CALM      30.33S
MARION         PTCLDY    36  34  93 N3        30.32R
CENTRALIA*     CLEAR     39  33  77 N3        30.32R
SALEM*         MOCLDY    40  33  75 N5        30.33R
METROPOLIS*    MOCLDY    41  31  66 CALM      30.31R
$$

ILZ067-068-072-073-078-083-087-091-030100-
SOUTHEAST ILLINOIS

CITY           SKY/WX    TMP DP  RH WIND       PRES   REMARKS
LAWRENCEVILLE  CLOUDY    41  32  70 NW6       30.33R
FLORA*         CLOUDY    42  33  69 N6        30.33S
FAIRFIELD*     CLOUDY    39  31  72 CALM      30.32R
HARRISBURG*    CLEAR     38  32  78 N3        30.32S
ROBINSON*      CLOUDY    39  32  77 NW6       30.33R WCI  34
CARMI*         CLEAR     36  32  87 W3        30.32R
$$

ABBREVIATIONS USED IN REMARKS
   TC - TEMPERATURE IN CELSIUS
  WCI - WIND CHILL INDEX
   HX - HEAT INDEX
  VSB - VISIBILITY
$$





USA.gov is the U.S. government's official web portal to all federal, state and local government web resources and services.